{"data":{"norad_id":68978,"intl_designator":"2026-099AD","name":"STARLINK-37293","alt_names":[],"object_type":"PAYLOAD","status":"ACTIVE","operator":null,"country":"US","launch_date":"2026-05-01","launch_site_code":"AFETR","launch_vehicle":null,"mission":null,"orbit_class":"UNKNOWN","rcs_meters":null,"size_class":null,"mass_kg":null,"dimensions":null,"purposes":["comms"],"wikipedia_slug":null,"has_3d_model":false,"image_url":null,"decayed_at":null,"tle_current":{"epoch":"2026-05-25T04:00:03.998880Z","epoch_age_seconds":50837,"freshness":"FRESH","line1":"1 68978U 26099AD  26145.16671295 -.02146283  00000+0 -25713-1 0  9995","line2":"2 68978  53.1592 269.9136 0000701  76.3640 292.3719 15.63935226  4969","mean_motion":15.63935226,"eccentricity":7.01e-5,"inclination_deg":53.1592,"raan_deg":269.9136,"arg_perigee_deg":76.364,"mean_anomaly_deg":292.3719,"bstar":-0.025713,"rev_number":496,"period_min":92.075424612247,"perigee_km":375.82928497225,"apogee_km":376.77625742817,"semimajor_km":6754.4397712002,"source":"CELESTRAK","updated_at":"2026-05-25T13:38:22.078327Z"}}}